Provincetown, Massachusetts, United States (02657)
Lat: 42.06N, Lon: 70.18W
Wx Zone: MAZ022
Local Info
Past Weather Observations for Today

NOTE: This archive is for the closest National Weather Service station to Provincetown. Information may differ from the station used for current weather conditions.

Click here for Long-term Archive

Time Weather Temperature Dewpoint Humidity Pressure Winds Precip Visibility
08:15
Overcast
72°F / 22°C 70°F / 21°C 94% 30.01 in
(1016 mb)
SW 8.1 mph
(SW 13 kph)
- 2 1/2SM
07:55
Overcast
72°F / 22°C 70°F / 21°C 94% 30.01 in
(1016 mb)
SW 9.2 mph
(SW 15 kph)
- 2 1/2SM
07:35
Overcast
72°F / 22°C 70°F / 21°C 94% 30.01 in
(1016 mb)
SW 9.2 mph
(SW 15 kph)
- 2 1/2SM
07:15
Mostly Cloudy
72°F / 22°C 70°F / 21°C 94% 30.01 in
(1016 mb)
SSE 8.1 mph
(SSE 13 kph)
- 3SM
06:55
Partly Cloudy
72°F / 22°C 70°F / 21°C 94% 30.01 in
(1016 mb)
SW 8.1 mph
(SW 13 kph)
- 3SM
06:35
Partly Cloudy
70°F / 21°C 68°F / 20°C 94% 30.01 in
(1016 mb)
SW 8.1 mph
(SW 13 kph)
- 3SM
06:15
Partly Cloudy
70°F / 21°C 68°F / 20°C 94% 30.01 in
(1016 mb)
SW 9.2 mph
(SW 15 kph)
- 2SM
05:55
Partly Cloudy
70°F / 21°C 68°F / 20°C 94% 30.01 in
(1016 mb)
SW 6.9 mph
(SW 11 kph)
- 2SM
05:35
Partly Cloudy
70°F / 21°C 68°F / 20°C 94% 30.01 in
(1016 mb)
SW 8.1 mph
(SW 13 kph)
- 2SM
05:15
Partly Cloudy
70°F / 21°C 68°F / 20°C 94% 30.01 in
(1016 mb)
SW 6.9 mph
(SW 11 kph)
- 2SM
04:55
Partly Cloudy
70°F / 21°C 68°F / 20°C 94% 30.01 in
(1016 mb)
SW 6.9 mph
(SW 11 kph)
- 3SM
04:35
Clear
70°F / 21°C 66°F / 19°C 88% 29.98 in
(1015 mb)
SW 8.1 mph
(SW 13 kph)
- 3SM
04:15
Clear
70°F / 21°C 66°F / 19°C 88% 29.98 in
(1015 mb)
SW 10.4 mph
(SW 17 kph)
- 4SM
03:55
Clear
70°F / 21°C 68°F / 20°C 94% 29.98 in
(1015 mb)
SW 9.2 mph
(SW 15 kph)
- 4SM
03:35
Clear
70°F / 21°C 66°F / 19°C 88% 29.98 in
(1015 mb)
SW 6.9 mph
(SW 11 kph)
- 3SM
03:15
Clear
70°F / 21°C 68°F / 20°C 94% 29.98 in
(1015 mb)
SW 8.1 mph
(SW 13 kph)
- 3SM
02:55
Clear
70°F / 21°C 68°F / 20°C 94% 29.98 in
(1015 mb)
SW 10.4 mph
(SW 17 kph)
- 3SM
02:35
Clear
70°F / 21°C 68°F / 20°C 94% 29.98 in
(1015 mb)
SW 11.5 mph
(SW 19 kph)
- 3SM
02:15
Partly Cloudy
70°F / 21°C 68°F / 20°C 94% 29.98 in
(1015 mb)
SW 10.4 mph
(SW 17 kph)
- 3SM
01:55
Mostly Cloudy
70°F / 21°C 68°F / 20°C 94% 29.98 in
(1015 mb)
SW 12.7 mph
(SW 20 kph)
- 4SM
01:35
Mostly Cloudy
70°F / 21°C 68°F / 20°C 94% 29.98 in
(1015 mb)
SW 12.7 mph
(SW 20 kph)
- 4SM
01:15
Mostly Cloudy
70°F / 21°C 68°F / 20°C 94% 29.98 in
(1015 mb)
SW 13.8 mph
(SW 22 kph)
- 4SM
00:55
Overcast
72°F / 22°C 68°F / 20°C 88% 29.98 in
(1015 mb)
SW 12.7 mph
(SW 20 kph)
- 5SM
00:35
Overcast
72°F / 22°C 70°F / 21°C 94% 29.98 in
(1015 mb)
SW 15 mph
(SW 24 kph)
- 7SM
00:15
Overcast
72°F / 22°C 68°F / 20°C 88% 29.98 in
(1015 mb)
SW 11.5 mph
(SW 19 kph)
- 10SM
Time Weather Temperature Dewpoint Humidity Pressure Winds Precip Visibility


Weather for websites

WeatherForYou.com, LLC is not responsible for any damages or problems caused by this service. Current weather conditions are obtained from the closest station including government and personal stations which may have varying degrees of accuracy. Weather forecasts are derived from the NOAA NDFD. Like all things, this site belongs to Jesus Christ... He just trusts me to maintain it. If you have any questions or comments email webmaster@weatherforyou.com

Copyright © 2014, WeatherForYou.com LLC. All rights reserved.